Weather History for Midland, MI

Change the Weather History Date:

Wednesday, May 29, 2013

  Actual Average (KMBS) Record (KMBS)
Temperature  
Mean Temperature 72 °F 62 °F  
Max Temperature 79 °F 72 °F 90 °F (1999)
Min Temperature 63 °F 51 °F 41 °F (2004)
Degree Days  
Heating Degree Days 0    
Month to date heating degree days  
Since 1 July heating degree days  
Cooling Degree Days 6    
Month to date cooling degree days  
Year to date cooling degree days  
Growing Degree Days 22 (Base 50)    
Moisture  
Dew Point 65 °F    
Average Humidity 86    
Maximum Humidity 99    
Minimum Humidity 64    
Precipitation  
Precipitation 0.13 in 0.10 in 0.80 in (2013)
Month to date precipitation 3.17  
Year to date precipitation 11.44  
Snow  
Snow 0.00 in - - ()
Month to date snowfall  
Since 1 July snowfall  
Snow Depth -    
Sea Level Pressure  
Sea Level Pressure 29.89 in    
Wind  
Wind Speed 5 mph (SW)    
Max Wind Speed 15 mph    
Max Gust Speed 21 mph    
Visibility 9 miles    
Events Rain    
T = Trace of Precipitation, MM = Missing Value Source: NWS Daily Summary

Daily Weather History Graph

Daily Weather History Graph

Search for Another Location

Airport:

Trip Planner

Search our weather history database for the weather conditions in past years. The results will help you decide how hot, cold, wet, or windy it might be!

Date:

Astronomy

May. 29, 2013 Rise Set
Actual Time 5:59 AM EDT 9:09 PM EDT
Civil Twilight 5:25 AM EDT 9:44 PM EDT
Nautical Twilight 4:40 AM EDT 10:29 PM EDT
Astronomical Twilight 3:46 AM EDT 11:23 PM EDT
Moon 12:27 AM EDT (5/29) 11:03 AM EDT (5/29)
Length of Visible Light 16h 19m
Length of Day
15h 09m
Waning Gibbous, 73% of the Moon is Illuminated
May 29
Waning Gibbous
May 31
Last Quarter
Jun 8
New
Jun 16
First Quarter
Jun 23
Full

Hourly Weather History & Observations

Time (EDT) Temp. Dew Point Humidity Pressure Visibility Wind Dir Wind Speed Gust Speed Precip Events Conditions
12:13 AM 68.4 °F 68.0 °F 99% 29.78 in 7.0 mi Calm Calm - N/A   Overcast
12:33 AM 68.4 °F 68.0 °F 99% 29.77 in 5.0 mi South 3.5 mph - N/A   Overcast
12:53 AM 68.4 °F 68.0 °F 99% 29.76 in 5.0 mi SSE 3.5 mph - 0.01 in   Overcast
1:12 AM 68.9 °F 68.2 °F 98% 29.77 in 7.0 mi South 6.9 mph - N/A   Overcast
1:32 AM 69.1 °F 68.4 °F 98% 29.77 in 5.0 mi South 4.6 mph - N/A   Overcast
1:52 AM 69.3 °F 68.5 °F 98% 29.79 in 4.0 mi SW 9.2 mph 17.3 mph 0.01 in Rain Rain
2:12 AM 68.5 °F 66.6 °F 93% 29.77 in 10.0 mi SW 8.1 mph - N/A Rain Rain
2:33 AM 66.9 °F 65.5 °F 95% 29.78 in 7.0 mi NNW 4.6 mph - N/A Rain Rain
2:52 AM 66.6 °F 65.7 °F 97% 29.78 in 10.0 mi NW 5.8 mph - N/A Rain Light Rain
3:12 AM 66.6 °F 65.5 °F 96% 29.77 in 10.0 mi Calm Calm - N/A Rain Light Rain
3:32 AM 65.3 °F 64.2 °F 96% 29.77 in 10.0 mi SW 3.5 mph - 0.01 in   Scattered Clouds
3:52 AM 64.8 °F 64.2 °F 98% 29.78 in 10.0 mi Calm Calm - 0.01 in   Clear
4:13 AM 64.8 °F 63.9 °F 97% 29.79 in 10.0 mi WSW 3.5 mph - N/A   Clear
4:32 AM 65.5 °F 64.4 °F 96% 29.80 in 10.0 mi WSW 5.8 mph - 0.01 in   Mostly Cloudy
4:52 AM 66.6 °F 65.1 °F 95% 29.82 in 10.0 mi SW 5.8 mph - 0.01 in   Overcast
5:13 AM 66.2 °F 64.8 °F 95% 29.82 in 10.0 mi SW 8.1 mph - N/A   Overcast
5:32 AM 66.2 °F 64.8 °F 95% 29.83 in 10.0 mi SW 8.1 mph - N/A   Overcast
5:53 AM 65.5 °F 64.0 °F 95% 29.83 in 10.0 mi SSW 5.8 mph - N/A   Overcast
6:13 AM 65.5 °F 63.9 °F 94% 29.84 in 10.0 mi WSW 6.9 mph - N/A   Overcast
6:32 AM 65.3 °F 63.5 °F 94% 29.84 in 10.0 mi SW 5.8 mph - 0.01 in   Overcast
6:53 AM 64.8 °F 63.5 °F 96% 29.85 in 10.0 mi SW 3.5 mph - 0.01 in   Overcast
7:13 AM 64.4 °F 63.3 °F 96% 29.85 in 10.0 mi SSW 5.8 mph - N/A   Mostly Cloudy
7:32 AM 64.4 °F 62.8 °F 94% 29.86 in 10.0 mi SSW 5.8 mph - N/A   Overcast
7:53 AM 64.4 °F 62.8 °F 94% 29.86 in 10.0 mi SW 4.6 mph - 0.01 in   Overcast
8:08 AM 64.4 °F 63.0 °F 95% 29.85 in 10.0 mi SW 4.6 mph - N/A   Overcast
8:35 AM 64.6 °F 63.1 °F 95% 29.86 in 10.0 mi SW 4.6 mph - N/A   Overcast
8:53 AM 64.8 °F 63.5 °F 96% 29.86 in 10.0 mi SSW 4.6 mph - N/A Rain Light Rain
9:12 AM 66.0 °F 64.2 °F 94% 29.87 in 10.0 mi SSW 8.1 mph - N/A   Overcast
9:33 AM 66.4 °F 64.4 °F 93% 29.88 in 10.0 mi SSW 6.9 mph - 0.01 in   Overcast
9:53 AM 66.6 °F 64.4 °F 93% 29.89 in 10.0 mi SW 10.4 mph - 0.01 in   Overcast
10:12 AM 66.6 °F 63.9 °F 91% 29.89 in 10.0 mi SW 8.1 mph - N/A   Overcast
10:33 AM 67.1 °F 64.4 °F 91% 29.89 in 10.0 mi WSW 6.9 mph - N/A   Overcast
10:53 AM 67.8 °F 64.9 °F 90% 29.89 in 10.0 mi WSW 5.8 mph - N/A   Overcast
11:12 AM 68.5 °F 65.1 °F 89% 29.89 in 7.0 mi SW 5.8 mph - N/A   Overcast
11:33 AM 69.8 °F 66.0 °F 88% 29.89 in 7.0 mi WNW 5.8 mph - N/A   Overcast
11:53 AM 71.8 °F 66.9 °F 85% 29.90 in 7.0 mi West 4.6 mph - N/A   Overcast
12:12 PM 73.6 °F 65.7 °F 76% 29.90 in 7.0 mi West 4.6 mph - N/A   Overcast
12:33 PM 75.2 °F 66.2 °F 73% 29.90 in 7.0 mi West 6.9 mph - N/A   Mostly Cloudy
12:53 PM 76.6 °F 66.0 °F 70% 29.91 in 10.0 mi WSW 10.4 mph - 0.01 in   Mostly Cloudy
1:12 PM 77.2 °F 67.1 °F 71% 29.92 in 10.0 mi SW 12.7 mph 16.1 mph N/A   Mostly Cloudy
1:33 PM 77.2 °F 66.0 °F 68% 29.92 in 10.0 mi SW 8.1 mph - N/A   Overcast
1:52 PM 77.2 °F 66.4 °F 69% 29.93 in 10.0 mi SW 12.7 mph 18.4 mph 0.01 in   Overcast
2:13 PM 77.4 °F 66.7 °F 70% 29.93 in 10.0 mi SW 12.7 mph 17.3 mph N/A   Mostly Cloudy
2:32 PM 77.7 °F 66.4 °F 68% 29.93 in 10.0 mi WSW 8.1 mph - N/A   Mostly Cloudy
2:53 PM 79.5 °F 66.2 °F 64% 29.93 in 10.0 mi WSW 9.2 mph 20.7 mph N/A   Mostly Cloudy
3:13 PM 78.6 °F 66.7 °F 67% 29.94 in 10.0 mi WSW 6.9 mph - 0.01 in   Mostly Cloudy
3:32 PM 78.8 °F 65.8 °F 64% 29.94 in 10.0 mi WSW 8.1 mph 19.6 mph 0.01 in   Mostly Cloudy
3:53 PM 77.2 °F 66.6 °F 70% 29.94 in 10.0 mi WSW 9.2 mph - 0.01 in   Mostly Cloudy
4:12 PM 77.0 °F 66.7 °F 70% 29.95 in 10.0 mi SW 15.0 mph 18.4 mph N/A   Mostly Cloudy
4:33 PM 75.4 °F 66.2 °F 73% 29.95 in 10.0 mi WSW 10.4 mph 16.1 mph 0.01 in   Mostly Cloudy
4:53 PM 75.4 °F 66.2 °F 73% 29.95 in 10.0 mi SW 9.2 mph - 0.01 in   Mostly Cloudy
5:12 PM 74.5 °F 66.0 °F 75% 29.95 in 10.0 mi SW 10.4 mph - N/A   Scattered Clouds
5:33 PM 74.5 °F 66.0 °F 75% 29.96 in 10.0 mi SW 6.9 mph - N/A   Scattered Clouds
5:53 PM 74.8 °F 66.4 °F 75% 29.96 in 10.0 mi SW 9.2 mph - N/A   Scattered Clouds
6:13 PM 73.9 °F 65.5 °F 75% 29.96 in 10.0 mi SW 10.4 mph 18.4 mph N/A   Clear
6:33 PM 75.4 °F 65.5 °F 71% 29.95 in 10.0 mi SW 8.1 mph - 0.01 in   Clear
6:53 PM 75.7 °F 66.0 °F 72% 29.95 in 10.0 mi WSW 8.1 mph - 0.01 in   Clear
7:13 PM 76.1 °F 66.4 °F 72% 29.95 in 10.0 mi SW 8.1 mph - N/A   Clear
7:33 PM 75.6 °F 65.8 °F 72% 29.95 in 10.0 mi WSW 9.2 mph - N/A   Clear
7:53 PM 75.4 °F 66.4 °F 73% 29.94 in 10.0 mi SW 8.1 mph - N/A   Clear
8:13 PM 75.4 °F 66.6 °F 74% 29.95 in 10.0 mi SW 5.8 mph - N/A   Clear
8:33 PM 74.3 °F 66.6 °F 77% 29.94 in 10.0 mi Calm Calm - N/A   Clear
8:53 PM 73.4 °F 65.8 °F 77% 29.94 in 10.0 mi South 3.5 mph - N/A   Clear
9:13 PM 71.2 °F 65.5 °F 82% 29.94 in 10.0 mi South 3.5 mph - N/A   Clear
9:33 PM 70.2 °F 65.1 °F 84% 29.94 in 10.0 mi South 3.5 mph - N/A   Clear
9:53 PM 67.8 °F 65.5 °F 92% 29.94 in 10.0 mi Calm Calm - N/A   Clear
10:13 PM 66.6 °F 65.5 °F 96% 29.96 in 10.0 mi Calm Calm - N/A   Clear
10:33 PM 66.2 °F 65.5 °F 98% 29.97 in 7.0 mi Calm Calm - N/A   Clear
10:53 PM 64.9 °F 64.4 °F 98% 29.97 in 5.0 mi Calm Calm - 0.01 in   Clear
11:13 PM 64.6 °F 64.4 °F 99% 29.96 in 2.5 mi Calm Calm - N/A   Clear
11:33 PM 64.0 °F 63.7 °F 99% 29.95 in 1.0 mi Calm Calm - N/A   Mist
11:53 PM 63.3 °F 63.0 °F 99% 29.95 in 0.8 mi Calm Calm - N/A   Mist